QPF
0.02 0.02 0.01 0.02 0.03 0.03 0.04 0.05 0.06 0.06 0.06 0.06 0.05 0.06 0.05 0.04 0.02 0.02 0.02 0.04 0.04 0.05 0.06 0.05 0.07 0.08 0.10 0.12 0.14 0.17 0.17 0.13 0.12 0.12 0.09 0.06 0.03 0.02 0.01 0.01 0.02 0.03 0.05
0.03 0.03 0.02 0.01 0.01 0.02 0.02 0.04 0.04 0.04 0.04 0.05 0.05 0.04 0.04 0.03 0.03 0.03 0.04 0.02 0.04 0.05 0.06 0.06 0.07 0.09 0.11 0.11 0.12 0.16 0.17 0.16 0.14 0.15 0.14 0.13 0.10 0.05 0.02 0.02 0.02 0.02 0.02
0.02 0.03 0.03 0.03 0.03 0.04 0.04 0.04 0.04 0.06 0.06 0.06 0.05 0.05 0.05 0.06 0.07 0.08 0.07 0.06 0.05 0.04 0.05 0.05 0.06 0.08 0.08 0.09 0.10 0.12 0.16 0.17 0.16 0.16 0.18 0.17 0.14 0.11 0.06 0.04 0.03 0.04 0.05
0.04 0.04 0.03 0.03 0.03 0.03 0.04 0.05 0.06 0.07 0.08 0.06 0.06 0.05 0.07 0.08 0.09 0.09 0.08 0.07 0.06 0.05 0.05 0.05 0.06 0.07 0.07 0.09 0.08 0.12 0.14 0.12 0.12 0.14 0.15 0.15 0.15 0.13 0.12 0.09 0.05 0.05 0.07
0.02 0.02 0.02 0.02 0.02 0.03 0.03 0.05 0.06 0.08 0.12 0.08 0.07 0.07 0.07 0.08 0.09 0.08 0.07 0.07 0.06 0.07 0.08 0.09 0.07 0.06 0.06 0.08 0.08 0.09 0.12 0.13 0.13 0.11 0.11 0.14 0.13 0.13 0.13 0.11 0.09 0.06 0.04
0.03 0.01 0.01 0.02 0.01 0.01 0.02 0.05 0.11 0.12 0.10 0.10 0.10 0.09 0.08 0.08 0.09 0.11 0.12 0.11 0.11 0.12 0.12 0.10 0.08 0.06 0.06 0.06 0.06 0.07 0.10 0.12 0.11 0.09 0.08 0.11 0.12 0.12 0.12 0.10 0.10 0.10 0.05
0.01 0.01 0.02 0.03 0.02 0.02 0.03 0.03 0.03 0.04 0.04 0.06 0.09 0.08 0.08 0.09 0.10 0.11 0.12 0.12 0.13 0.16 0.16 0.15 0.12 0.09 0.08 0.07 0.06 0.07 0.10 0.10 0.10 0.10 0.10 0.10 0.10 0.09 0.10 0.10 0.09 0.08 0.06
0.01 0.01 0.04 0.04 0.02 0.01 0.01 0.01 0.02 0.02 0.02 0.03 0.04 0.04 0.05 0.06 0.06 0.07 0.08 0.07 0.08 0.08 0.07 0.06 0.05 0.03 0.03 0.04 0.05 0.06 0.07 0.08 0.08 0.10 0.11 0.10 0.08 0.07 0.07 0.08 0.10 0.10 0.09
0.00 0.01 0.01 0.01 0.01 0.01 0.01 0.01 0.01 0.02 0.03 0.04 0.04 0.04 0.03 0.03 0.03 0.04 0.04 0.05 0.05 0.04 0.04 0.03 0.03 0.02 0.02 0.03 0.03 0.03 0.04 0.06 0.07 0.10 0.12 0.09 0.08 0.07 0.06 0.07 0.09 0.11 0.13
0.01 0.01 0.01 0.01 0.01 0.01 0.01 0.01 0.01 0.02 0.02 0.04 0.05 0.06 0.04 0.03 0.02 0.02 0.03 0.05 0.05 0.04 0.04 0.03 0.03 0.03 0.02 0.02 0.02 0.02 0.03 0.04 0.05 0.08 0.12 0.12 0.09 0.08 0.07 0.08 0.08 0.10 0.10
0.01 0.01 0.01 0.01 0.01 0.01 0.01 0.01 0.01 0.02 0.02 0.03 0.03 0.04 0.04 0.04 0.04 0.03 0.03 0.04 0.05 0.06 0.06 0.04 0.04 0.03 0.02 0.02 0.03 0.02 0.03 0.04 0.05 0.04 0.06 0.09 0.10 0.10 0.10 0.10 0.09 0.09 0.10
0.01 0.01 0.01 0.01 0.00 0.01 0.01 0.02 0.03 0.03 0.02 0.02 0.02 0.03 0.03 0.04 0.03 0.03 0.03 0.03 0.03 0.03 0.04 0.04 0.03 0.02 0.03 0.03 0.02 0.02 0.02 0.03 0.04 0.04 0.05 0.06 0.09 0.11 0.11 0.10 0.09 0.09 0.11
0.01 0.01 0.01 0.01 0.01 0.01 0.01 0.01 0.02 0.03 0.03 0.02 0.02 0.03 0.03 0.02 0.02 0.03 0.03 0.03 0.04 0.03 0.03 0.05 0.03 0.03 0.03 0.04 0.03 0.03 0.03 0.02 0.03 0.03 0.05 0.05 0.07 0.09 0.11 0.10 0.10 0.12 0.12
0.01 0.01 0.02 0.02 0.01 0.01 0.01 0.01 0.02 0.02 0.01 0.01 0.02 0.02 0.02 0.02 0.02 0.02 0.02 0.03 0.03 0.03 0.03 0.04 0.03 0.04 0.04 0.03 0.03 0.03 0.02 0.02 0.02 0.02 0.03 0.04 0.05 0.05 0.06 0.06 0.08 0.10 0.11
0.01 0.01 0.01 0.03 0.01 0.01 0.01 0.01 0.01 0.02 0.01 0.01 0.01 0.01 0.02 0.02 0.02 0.03 0.03 0.03 0.03 0.02 0.03 0.03 0.04 0.03 0.03 0.02 0.03 0.03 0.02 0.01 0.01 0.01 0.02 0.02 0.03 0.02 0.03 0.03 0.05 0.06 0.06
0.01 0.01 0.01 0.01 0.01 0.01 0.00 0.00 0.00 0.01 0.01 0.01 0.01 0.01 0.02 0.02 0.02 0.03 0.03 0.03 0.03 0.02 0.02 0.02 0.03 0.03 0.02 0.03 0.03 0.02 0.02 0.02 0.02 0.01 0.02 0.02 0.02 0.02 0.03 0.03 0.03 0.03 0.03
0.00 0.01 0.01 0.01 0.01 0.00 0.00 0.00 0.00 0.00 0.01 0.02 0.02 0.02 0.02 0.02 0.02 0.01 0.02 0.02 0.02 0.02 0.02 0.02 0.02 0.03 0.03 0.03 0.03 0.02 0.02 0.02 0.02 0.02 0.02 0.02 0.02 0.04 0.04 0.04 0.04 0.03 0.03
0.00 0.00 0.01 0.01 0.01 0.01 0.00 0.00 0.00 0.01 0.01 0.03 0.03 0.02 0.02 0.02 0.02 0.02 0.02 0.02 0.03 0.02 0.03 0.02 0.03 0.04 0.03 0.04 0.04 0.04 0.03 0.02 0.02 0.02 0.02 0.02 0.03 0.04 0.05 0.04 0.04 0.03 0.04
0.00 0.00 0.00 0.01 0.01 0.01 0.01 0.01 0.01 0.01 0.01 0.03 0.03 0.03 0.03 0.03 0.03 0.03 0.03 0.03 0.03 0.02 0.02 0.02 0.03 0.04 0.03 0.04 0.04 0.03 0.02 0.02 0.02 0.02 0.02 0.02 0.02 0.04 0.04 0.03 0.03 0.03 0.04
0.00 0.00 0.00 0.01 0.01 0.01 0.02 0.01 0.01 0.01 0.01 0.01 0.02 0.02 0.03 0.03 0.03 0.02 0.02 0.02 0.02 0.03 0.03 0.03 0.04 0.03 0.03 0.04 0.04 0.02 0.02 0.02 0.03 0.03 0.02 0.03 0.02 0.02 0.02 0.03 0.03 0.03 0.03
0.01 0.00 0.00 0.01 0.01 0.01 0.02 0.02 0.01 0.01 0.01 0.02 0.02 0.02 0.03 0.03 0.03 0.03 0.03 0.03 0.03 0.03 0.04 0.04 0.04 0.04 0.03 0.03 0.03 0.02 0.01 0.01 0.01 0.02 0.02 0.01 0.01 0.02 0.02 0.02 0.03 0.02 0.02
0.01 0.01 0.01 0.01 0.02 0.02 0.02 0.03 0.02 0.02 0.03 0.04 0.05 0.04 0.04 0.04 0.04 0.05 0.04 0.04 0.04 0.04 0.04 0.04 0.04 0.04 0.03 0.02 0.02 0.01 0.01 0.01 0.01 0.01 0.02 0.01 0.02 0.02 0.01 0.01 0.01 0.02 0.02
0.00 0.00 0.01 0.01 0.02 0.02 0.02 0.03 0.03 0.02 0.01 0.02 0.03 0.03 0.04 0.05 0.06 0.07 0.07 0.07 0.08 0.06 0.05 0.05 0.04 0.03 0.03 0.02 0.02 0.02 0.01 0.01 0.01 0.01 0.02 0.01 0.01 0.01 0.01 0.01 0.01 0.02 0.02
0.00 0.00 0.01 0.01 0.01 0.01 0.01 0.02 0.02 0.02 0.01 0.01 0.02 0.03 0.03 0.03 0.04 0.05 0.05 0.06 0.07 0.07 0.06 0.05 0.04 0.04 0.04 0.03 0.03 0.03 0.02 0.02 0.02 0.02 0.02 0.01 0.01 0.01 0.01 0.01 0.01 0.01 0.02
0.01 0.00 0.01 0.02 0.02 0.02 0.02 0.02 0.01 0.02 0.02 0.02 0.03 0.04 0.03 0.04 0.05 0.06 0.07 0.07 0.07 0.06 0.06 0.04 0.04 0.05 0.05 0.04 0.04 0.03 0.02 0.02 0.02 0.02 0.02 0.02 0.02 0.01 0.01 0.02 0.03 0.03 0.03
0.01 0.01 0.01 0.02 0.02 0.02 0.02 0.02 0.02 0.02 0.03 0.03 0.03 0.03 0.04 0.04 0.05 0.06 0.07 0.08 0.07 0.07 0.06 0.04 0.04 0.04 0.03 0.02 0.01 0.01 0.02 0.01 0.02 0.02 0.03 0.03 0.03 0.04 0.04 0.04 0.04 0.03 0.02
MSLP
1007.92 1008.15 1008.38 1008.59 1008.78 1008.98 1009.20 1009.46 1009.77 1010.11 1010.47 1010.81 1011.10 1011.33 1011.49 1011.58 1011.63 1011.67 1011.73 1011.82 1011.95 1012.13 1012.31 1012.50 1012.65 1012.75 1012.80 1012.80 1012.76 1012.69 1012.60 1012.49 1012.36 1012.21 1012.02 1011.79 1011.51 1011.20 1010.88 1010.58 1010.32 1010.13 1010.05
1007.31 1007.61 1007.90 1008.16 1008.38 1008.59 1008.80 1009.04 1009.33 1009.67 1010.03 1010.39 1010.71 1010.96 1011.14 1011.23 1011.27 1011.29 1011.32 1011.40 1011.53 1011.72 1011.95 1012.19 1012.40 1012.57 1012.67 1012.71 1012.69 1012.63 1012.55 1012.45 1012.35 1012.23 1012.09 1011.92 1011.70 1011.43 1011.12 1010.80 1010.50 1010.25 1010.09
1006.52 1006.89 1007.25 1007.57 1007.85 1008.08 1008.31 1008.56 1008.86 1009.21 1009.60 1009.98 1010.34 1010.62 1010.81 1010.91 1010.94 1010.93 1010.93 1010.98 1011.10 1011.30 1011.56 1011.85 1012.13 1012.36 1012.53 1012.62 1012.64 1012.60 1012.54 1012.46 1012.39 1012.32 1012.24 1012.13 1011.98 1011.77 1011.50 1011.19 1010.87 1010.57 1010.34
1005.62 1006.02 1006.44 1006.82 1007.16 1007.44 1007.71 1008.00 1008.32 1008.71 1009.13 1009.56 1009.96 1010.28 1010.49 1010.60 1010.62 1010.59 1010.56 1010.58 1010.68 1010.87 1011.15 1011.48 1011.82 1012.12 1012.36 1012.51 1012.58 1012.59 1012.56 1012.51 1012.48 1012.45 1012.43 1012.39 1012.31 1012.17 1011.94 1011.66 1011.33 1011.00 1010.70
1004.66 1005.07 1005.52 1005.95 1006.33 1006.67 1006.98 1007.30 1007.67 1008.10 1008.58 1009.07 1009.52 1009.89 1010.14 1010.27 1010.29 1010.25 1010.19 1010.18 1010.25 1010.44 1010.72 1011.09 1011.48 1011.84 1012.15 1012.37 1012.50 1012.56 1012.57 1012.56 1012.56 1012.58 1012.61 1012.63 1012.61 1012.52 1012.35 1012.10 1011.78 1011.42 1011.06
1003.74 1004.11 1004.55 1004.99 1005.40 1005.76 1006.10 1006.45 1006.87 1007.35 1007.88 1008.43 1008.95 1009.39 1009.70 1009.87 1009.91 1009.86 1009.79 1009.76 1009.81 1009.98 1010.27 1010.65 1011.08 1011.50 1011.88 1012.17 1012.36 1012.47 1012.52 1012.55 1012.58 1012.63 1012.69 1012.75 1012.78 1012.75 1012.63 1012.41 1012.10 1011.73 1011.35
1002.93 1003.23 1003.61 1004.02 1004.40 1004.74 1005.09 1005.46 1005.90 1006.41 1007.00 1007.62 1008.22 1008.73 1009.11 1009.34 1009.42 1009.40 1009.33 1009.29 1009.33 1009.48 1009.77 1010.17 1010.63 1011.10 1011.53 1011.88 1012.13 1012.30 1012.39 1012.44 1012.49 1012.56 1012.63 1012.72 1012.78 1012.78 1012.70 1012.52 1012.25 1011.89 1011.49
1002.31 1002.49 1002.77 1003.09 1003.40 1003.69 1004.00 1004.35 1004.79 1005.33 1005.96 1006.64 1007.31 1007.90 1008.37 1008.68 1008.82 1008.85 1008.81 1008.78 1008.81 1008.96 1009.24 1009.64 1010.12 1010.62 1011.10 1011.50 1011.80 1012.01 1012.14 1012.21 1012.26 1012.33 1012.40 1012.49 1012.56 1012.60 1012.56 1012.43 1012.19 1011.87 1011.49
1001.90 1001.95 1002.10 1002.29 1002.49 1002.69 1002.92 1003.23 1003.64 1004.18 1004.83 1005.56 1006.29 1006.97 1007.52 1007.92 1008.14 1008.23 1008.24 1008.24 1008.29 1008.44 1008.71 1009.11 1009.60 1010.12 1010.62 1011.06 1011.40 1011.63 1011.78 1011.86 1011.91 1011.96 1012.02 1012.10 1012.18 1012.23 1012.23 1012.15 1011.98 1011.72 1011.39
1001.73 1001.64 1001.65 1001.69 1001.76 1001.84 1001.97 1002.20 1002.57 1003.09 1003.74 1004.49 1005.28 1006.02 1006.66 1007.14 1007.45 1007.62 1007.69 1007.73 1007.80 1007.96 1008.23 1008.62 1009.10 1009.62 1010.13 1010.59 1010.95 1011.20 1011.35 1011.43 1011.47 1011.50 1011.54 1011.60 1011.68 1011.74 1011.78 1011.76 1011.66 1011.48 1011.22
1001.79 1001.58 1001.45 1001.36 1001.28 1001.24 1001.27 1001.42 1001.73 1002.21 1002.85 1003.61 1004.42 1005.21 1005.91 1006.47 1006.86 1007.10 1007.23 1007.32 1007.41 1007.58 1007.85 1008.22 1008.69 1009.19 1009.69 1010.14 1010.51 1010.77 1010.92 1011.00 1011.02 1011.03 1011.04 1011.08 1011.15 1011.23 1011.30 1011.33 1011.31 1011.21 1011.05
1002.05 1001.76 1001.52 1001.31 1001.12 1000.97 1000.92 1000.99 1001.24 1001.68 1002.29 1003.03 1003.85 1004.66 1005.39 1006.00 1006.44 1006.74 1006.93 1007.05 1007.17 1007.35 1007.60 1007.95 1008.38 1008.86 1009.34 1009.77 1010.12 1010.38 1010.53 1010.60 1010.61 1010.60 1010.59 1010.61 1010.66 1010.74 1010.83 1010.91 1010.96 1010.94 1010.87
1002.48 1002.14 1001.83 1001.54 1001.27 1001.06 1000.94 1000.97 1001.17 1001.57 1002.14 1002.86 1003.65 1004.45 1005.18 1005.80 1006.27 1006.60 1006.82 1006.96 1007.09 1007.26 1007.49 1007.81 1008.20 1008.63 1009.07 1009.48 1009.81 1010.05 1010.20 1010.27 1010.27 1010.24 1010.22 1010.22 1010.25 1010.32 1010.42 1010.52 1010.61 1010.65 1010.64
1003.01 1002.67 1002.34 1002.02 1001.73 1001.49 1001.35 1001.36 1001.54 1001.90 1002.44 1003.10 1003.84 1004.59 1005.29 1005.88 1006.34 1006.66 1006.88 1007.03 1007.16 1007.30 1007.50 1007.77 1008.11 1008.49 1008.88 1009.25 1009.56 1009.79 1009.93 1009.99 1010.00 1009.97 1009.93 1009.91 1009.92 1009.97 1010.04 1010.14 1010.23 1010.30 1010.32
1003.61 1003.31 1003.00 1002.70 1002.42 1002.20 1002.08 1002.10 1002.27 1002.61 1003.10 1003.71 1004.37 1005.04 1005.66 1006.19 1006.60 1006.89 1007.08 1007.21 1007.31 1007.42 1007.58 1007.80 1008.08 1008.40 1008.74 1009.06 1009.34 1009.56 1009.70 1009.76 1009.77 1009.74 1009.69 1009.65 1009.63 1009.64 1009.67 1009.73 1009.79 1009.84 1009.86
1004.24 1004.00 1003.74 1003.49 1003.26 1003.10 1003.03 1003.08 1003.27 1003.60 1004.04 1004.57 1005.14 1005.71 1006.22 1006.66 1006.98 1007.21 1007.35 1007.43 1007.50 1007.57 1007.69 1007.85 1008.07 1008.34 1008.62 1008.90 1009.15 1009.35 1009.48 1009.55 1009.57 1009.54 1009.48 1009.42 1009.36 1009.31 1009.28 1009.26 1009.26 1009.25 1009.22
1004.86 1004.68 1004.50 1004.33 1004.19 1004.10 1004.10 1004.20 1004.41 1004.72 1005.12 1005.57 1006.03 1006.47 1006.87 1007.18 1007.41 1007.55 1007.63 1007.66 1007.68 1007.72 1007.78 1007.90 1008.07 1008.28 1008.52 1008.75 1008.97 1009.15 1009.28 1009.36 1009.38 1009.35 1009.28 1009.19 1009.09 1008.97 1008.86 1008.76 1008.65 1008.55 1008.45
1005.43 1005.34 1005.24 1005.16 1005.11 1005.11 1005.19 1005.35 1005.58 1005.88 1006.22 1006.58 1006.93 1007.25 1007.51 1007.70 1007.82 1007.87 1007.88 1007.86 1007.85 1007.85 1007.89 1007.97 1008.10 1008.27 1008.46 1008.65 1008.84 1009.00 1009.13 1009.20 1009.22 1009.19 1009.11 1008.98 1008.83 1008.65 1008.45 1008.24 1008.03 1007.82 1007.61
1005.95 1005.94 1005.93 1005.94 1005.98 1006.08 1006.23 1006.44 1006.69 1006.97 1007.26 1007.53 1007.77 1007.96 1008.10 1008.17 1008.19 1008.17 1008.12 1008.07 1008.03 1008.01 1008.04 1008.10 1008.21 1008.34 1008.50 1008.66 1008.82 1008.96 1009.06 1009.12 1009.12 1009.08 1008.98 1008.82 1008.62 1008.37 1008.08 1007.78 1007.46 1007.14 1006.82
1006.40 1006.48 1006.56 1006.66 1006.80 1006.98 1007.20 1007.44 1007.71 1007.96 1008.20 1008.39 1008.54 1008.62 1008.64 1008.62 1008.55 1008.47 1008.38 1008.31 1008.26 1008.25 1008.27 1008.34 1008.44 1008.56 1008.69 1008.83 1008.95 1009.06 1009.13 1009.16 1009.14 1009.06 1008.93 1008.74 1008.48 1008.17 1007.82 1007.43 1007.01 1006.59 1006.18
1006.82 1006.98 1007.15 1007.34 1007.56 1007.81 1008.08 1008.36 1008.63 1008.86 1009.05 1009.17 1009.23 1009.23 1009.16 1009.06 1008.93 1008.81 1008.70 1008.62 1008.58 1008.59 1008.64 1008.72 1008.82 1008.94 1009.06 1009.17 1009.26 1009.32 1009.35 1009.33 1009.27 1009.15 1008.97 1008.74 1008.44 1008.08 1007.67 1007.21 1006.73 1006.24 1005.75
1007.21 1007.46 1007.72 1007.99 1008.28 1008.59 1008.90 1009.20 1009.47 1009.68 1009.82 1009.89 1009.88 1009.81 1009.68 1009.53 1009.36 1009.21 1009.10 1009.03 1009.02 1009.05 1009.13 1009.24 1009.36 1009.48 1009.59 1009.67 1009.72 1009.73 1009.70 1009.62 1009.49 1009.32 1009.09 1008.80 1008.46 1008.06 1007.62 1007.13 1006.61 1006.07 1005.54
1007.62 1007.96 1008.29 1008.64 1008.98 1009.33 1009.67 1009.98 1010.23 1010.42 1010.53 1010.56 1010.51 1010.38 1010.21 1010.02 1009.84 1009.68 1009.57 1009.52 1009.53 1009.59 1009.70 1009.83 1009.97 1010.09 1010.19 1010.24 1010.25 1010.20 1010.10 1009.95 1009.75 1009.50 1009.21 1008.88 1008.50 1008.08 1007.62 1007.13 1006.61 1006.07 1005.52
1008.08 1008.49 1008.89 1009.28 1009.67 1010.04 1010.39 1010.69 1010.93 1011.10 1011.18 1011.17 1011.09 1010.94 1010.74 1010.54 1010.34 1010.18 1010.07 1010.04 1010.06 1010.14 1010.27 1010.42 1010.56 1010.68 1010.76 1010.78 1010.74 1010.63 1010.46 1010.24 1009.96 1009.64 1009.29 1008.91 1008.51 1008.08 1007.63 1007.16 1006.67 1006.16 1005.64
1008.61 1009.08 1009.52 1009.94 1010.33 1010.70 1011.04 1011.32 1011.54 1011.68 1011.74 1011.71 1011.60 1011.44 1011.23 1011.01 1010.81 1010.65 1010.55 1010.51 1010.54 1010.63 1010.75 1010.90 1011.04 1011.14 1011.20 1011.18 1011.09 1010.93 1010.69 1010.39 1010.05 1009.67 1009.27 1008.86 1008.44 1008.02 1007.60 1007.18 1006.75 1006.30 1005.84
1009.24 1009.72 1010.17 1010.58 1010.96 1011.30 1011.60 1011.85 1012.03 1012.14 1012.18 1012.13 1012.01 1011.84 1011.64 1011.42 1011.21 1011.05 1010.94 1010.89 1010.90 1010.97 1011.08 1011.21 1011.32 1011.40 1011.42 1011.37 1011.24 1011.03 1010.74 1010.38 1009.99 1009.56 1009.13 1008.70 1008.30 1007.91 1007.54 1007.18 1006.83 1006.47 1006.08
Thickness
5834 5833 5831 5828 5822 5817 5812 5809 5806 5803 5800 5797 5794 5791 5790 5792 5792 5791 5790 5787 5785 5784 5782 5781 5780 5779 5777 5775 5775 5773 5771 5770 5771 5768 5765 5770 5776 5776 5778 5777 5775 5774 5773
5832 5829 5829 5828 5823 5817 5814 5810 5807 5804 5802 5800 5797 5795 5794 5793 5793 5792 5790 5788 5786 5784 5784 5780 5779 5778 5776 5774 5772 5771 5768 5768 5770 5764 5758 5755 5760 5768 5776 5775 5773 5773 5773
5833 5828 5827 5827 5824 5819 5815 5813 5808 5805 5803 5801 5799 5797 5794 5792 5790 5788 5788 5788 5786 5784 5782 5780 5778 5777 5775 5772 5771 5770 5768 5764 5766 5767 5759 5750 5747 5755 5765 5770 5771 5771 5770
5838 5832 5829 5827 5825 5822 5819 5815 5810 5806 5804 5802 5798 5794 5789 5785 5786 5787 5787 5786 5784 5782 5780 5778 5777 5775 5774 5771 5771 5770 5768 5765 5762 5764 5764 5760 5757 5749 5749 5759 5766 5767 5766
5844 5837 5834 5831 5829 5826 5822 5816 5811 5807 5804 5802 5798 5794 5791 5789 5788 5788 5785 5783 5782 5780 5779 5776 5774 5773 5772 5770 5769 5768 5767 5765 5762 5761 5760 5759 5758 5757 5749 5745 5753 5759 5763
5847 5842 5839 5835 5830 5828 5823 5817 5810 5805 5803 5800 5798 5794 5790 5788 5786 5784 5781 5780 5780 5779 5777 5775 5773 5771 5770 5768 5767 5766 5764 5763 5762 5761 5760 5757 5754 5752 5750 5745 5746 5748 5755
5848 5842 5837 5833 5829 5826 5823 5819 5811 5806 5803 5800 5797 5794 5791 5788 5784 5783 5781 5778 5777 5775 5775 5774 5772 5769 5768 5767 5766 5764 5762 5761 5760 5758 5758 5758 5757 5756 5752 5747 5744 5745 5749
5850 5845 5840 5835 5831 5828 5824 5819 5812 5807 5804 5800 5796 5794 5791 5788 5785 5783 5781 5779 5776 5775 5774 5772 5770 5768 5766 5765 5763 5762 5760 5760 5758 5758 5756 5755 5756 5756 5753 5748 5743 5738 5740
5849 5846 5842 5838 5833 5829 5825 5820 5813 5807 5804 5800 5796 5793 5790 5786 5784 5783 5781 5778 5775 5774 5772 5770 5767 5765 5763 5762 5760 5758 5757 5756 5755 5754 5753 5751 5752 5752 5752 5750 5746 5737 5730
5845 5845 5841 5839 5835 5831 5826 5821 5814 5807 5803 5800 5796 5792 5789 5786 5783 5781 5778 5775 5773 5771 5769 5766 5764 5762 5760 5759 5757 5755 5754 5752 5750 5750 5748 5746 5747 5747 5746 5745 5743 5741 5734
5844 5842 5840 5838 5835 5831 5826 5819 5813 5807 5802 5798 5793 5790 5787 5784 5781 5778 5775 5773 5770 5768 5765 5763 5760 5758 5756 5755 5753 5751 5750 5747 5746 5745 5743 5741 5741 5740 5739 5738 5737 5735 5732
5843 5840 5837 5834 5830 5827 5823 5817 5812 5806 5801 5797 5791 5787 5784 5781 5778 5775 5773 5771 5767 5765 5763 5760 5757 5755 5753 5751 5749 5746 5745 5743 5740 5739 5737 5735 5736 5733 5732 5730 5729 5728 5726
5836 5834 5830 5826 5823 5820 5818 5814 5810 5805 5800 5795 5789 5784 5780 5777 5774 5772 5770 5767 5764 5761 5759 5757 5754 5751 5750 5748 5745 5743 5740 5738 5736 5734 5731 5729 5728 5725 5725 5723 5721 5720 5720
5828 5825 5821 5818 5817 5815 5812 5808 5805 5802 5798 5792 5786 5780 5778 5775 5772 5769 5767 5765 5762 5758 5755 5753 5751 5748 5746 5744 5741 5738 5736 5733 5731 5729 5726 5724 5721 5719 5717 5716 5714 5714 5711
5819 5816 5813 5810 5809 5808 5806 5803 5800 5797 5794 5788 5782 5778 5775 5773 5769 5766 5763 5761 5758 5756 5753 5750 5747 5745 5742 5740 5736 5733 5731 5727 5724 5722 5720 5718 5716 5714 5711 5709 5707 5706 5704
5810 5810 5807 5804 5802 5801 5800 5797 5794 5792 5788 5783 5778 5775 5771 5767 5764 5761 5758 5756 5753 5751 5748 5745 5742 5740 5739 5735 5731 5727 5724 5722 5718 5715 5713 5711 5710 5707 5704 5702 5700 5699 5696
5804 5802 5800 5798 5797 5796 5794 5791 5789 5786 5781 5776 5773 5770 5767 5762 5760 5758 5754 5750 5747 5745 5742 5740 5737 5734 5730 5727 5724 5720 5718 5716 5713 5710 5707 5706 5704 5700 5697 5695 5694 5692 5690
5798 5797 5795 5794 5794 5793 5790 5786 5783 5778 5774 5770 5767 5765 5761 5757 5755 5751 5748 5745 5742 5739 5736 5734 5731 5727 5723 5719 5717 5714 5712 5709 5707 5704 5701 5697 5694 5692 5688 5687 5685 5684 5683
5795 5794 5793 5791 5787 5784 5782 5778 5775 5771 5767 5763 5760 5759 5756 5752 5749 5745 5742 5740 5736 5733 5731 5729 5725 5721 5715 5712 5709 5705 5704 5701 5699 5697 5694 5691 5686 5682 5680 5678 5676 5675 5674
5789 5787 5786 5783 5778 5776 5772 5768 5765 5762 5759 5757 5755 5753 5751 5746 5743 5740 5737 5734 5731 5727 5725 5722 5719 5714 5709 5704 5701 5697 5696 5693 5690 5688 5685 5681 5677 5674 5671 5668 5666 5664 5664
5779 5778 5775 5772 5769 5767 5762 5757 5756 5754 5754 5752 5750 5747 5744 5741 5738 5734 5731 5727 5723 5720 5717 5714 5711 5707 5703 5697 5693 5689 5687 5685 5683 5680 5677 5673 5669 5665 5662 5659 5657 5656 5655
5767 5766 5762 5760 5759 5758 5754 5748 5746 5748 5747 5744 5741 5738 5736 5734 5732 5726 5723 5720 5716 5712 5708 5705 5701 5699 5695 5690 5685 5681 5677 5675 5674 5672 5669 5665 5660 5657 5654 5652 5650 5648 5646
5756 5755 5751 5748 5748 5747 5745 5740 5739 5739 5737 5734 5731 5729 5727 5725 5723 5718 5714 5711 5708 5704 5700 5696 5692 5689 5686 5681 5677 5673 5669 5666 5664 5662 5660 5656 5652 5649 5647 5646 5643 5640 5639
5746 5744 5741 5737 5735 5735 5734 5732 5731 5730 5727 5723 5721 5719 5717 5715 5713 5711 5708 5704 5700 5696 5693 5689 5685 5683 5678 5672 5668 5664 5659 5656 5653 5651 5648 5646 5644 5642 5640 5639 5636 5634 5632
5735 5733 5730 5727 5725 5724 5723 5723 5722 5719 5716 5714 5712 5711 5709 5707 5703 5700 5697 5695 5692 5690 5686 5683 5680 5674 5668 5662 5658 5654 5651 5648 5645 5640 5638 5637 5636 5635 5633 5631 5629 5627 5624
5724 5722 5721 5718 5716 5715 5714 5713 5713 5710 5706 5703 5702 5702 5701 5698 5694 5690 5686 5682 5681 5678 5676 5674 5670 5665 5660 5654 5649 5645 5643 5639 5636 5632 5631 5630 5629 5627 5625 5623 5620 5618 5615